Victoria, TX

6:19 PM CST on December 07, 2019 (GMT -0600)
Victoria Regional

Weather History for KVCT - October, 2019

Change the Weather History Date:

Tuesday, October 29, 2019

  Actual Average Record
Temperature  
Mean Temperature 70 °F 69 °F  
Max Temperature 75 °F 80 °F 92 °F (1938)
Min Temperature 65 °F 57 °F 32 °F (2017)
Degree Days  
Heating Degree Days 0 2  
Month to date heating degree days 16 16  
Since 1 July heating degree days 16 17  
Cooling Degree Days 6 5  
Month to date cooling degree days 296 234  
Year to date cooling degree days 3561 3032  
Growing Degree Days 20 (Base 50)    
Moisture  
Dew Point 70 °F    
Average Humidity 91    
Maximum Humidity 94    
Minimum Humidity 82    
Precipitation  
Precipitation 0.93 in 0.13 in 2.89 in (1991)
Month to date precipitation 3.25 4.38  
Year to date precipitation 22.61 35.41  
Snow  
Snow 0.00 in 0.00 in 0.00 in (2002)
Month to date snowfall 0.0 0.0  
Since 1 July snowfall 0.0 0.0  
Since 1 September snowfall 0.0 0.0  
Snow Depth 0.00 in    
Sea Level Pressure  
Sea Level Pressure 29.90 in    
Wind  
Wind Speed 8 mph ()    
Max Wind Speed 14 mph    
Max Gust Speed 18 mph    
Visibility 4.5 miles    
Events Fog , Rain    
T = Trace of Precipitation, MM = Missing Value Source: Averaged Metar Reports

Daily Weather History Graph

Daily Weather History Graph

Search for Another Location

Airport or City:

Astronomy

Oct. 29, 2019 Rise Set
Actual Time 7:37 AM CDT 6:44 PM CDT
Civil Twilight 7:13 AM CDT 7:08 PM CDT
Nautical Twilight 6:45 AM CDT 7:36 PM CDT
Astronomical Twilight 6:17 AM CDT 8:04 PM CDT
Moon 9:08 AM CDT (10/29) 8:16 PM CDT (10/29)
Length of Visible Light 11h 55m
Length of Day
11h 06m
Waxing Crescent, 3% of the Moon is Illuminated
Oct 29
Waxing Crescent
Nov 4
First Quarter
Nov 12
Full
Nov 19
Last Quarter
Nov 26
New

Hourly Weather History & Observations

Time (CDT) Temp. Dew Point Humidity Pressure Visibility Wind Dir Wind Speed Gust Speed Precip Events Conditions
12:19 AM 73.4 °F 69.8 °F 88% 29.95 in 9.0 mi East 9.2 mph - N/A   Overcast
12:51 AM 73.9 °F 70.0 °F 87% 29.94 in 9.0 mi East 6.9 mph - N/A   Overcast
1:24 AM 73.0 °F 70.0 °F 90% 29.94 in 6.0 mi ENE 6.9 mph - N/A   Overcast
1:51 AM 73.0 °F 70.0 °F 90% 29.93 in 7.0 mi ENE 8.1 mph - N/A   Overcast
2:51 AM 73.0 °F 70.0 °F 90% 29.92 in 6.0 mi ENE 8.1 mph - 0.00 in   Overcast
3:51 AM 73.0 °F 70.0 °F 90% 29.90 in 5.0 mi ENE 8.1 mph - N/A   Overcast
4:51 AM 73.0 °F 70.0 °F 90% 29.89 in 5.0 mi ENE 8.1 mph - N/A   Overcast
5:27 AM 73.0 °F 71.1 °F 93% 29.89 in 5.0 mi ENE 9.2 mph - 0.01 in   Overcast
5:51 AM 73.0 °F 71.1 °F 93% 29.89 in 4.0 mi ENE 9.2 mph - 0.01 in   Overcast
5:58 AM 73.0 °F 71.1 °F 93% 29.90 in 4.0 mi ENE 8.1 mph - N/A   Overcast
6:51 AM 73.9 °F 71.1 °F 91% 29.88 in 5.0 mi East 11.5 mph - 0.00 in   Overcast
7:32 AM 73.9 °F 71.1 °F 91% 29.90 in 5.0 mi East 8.1 mph - N/A   Overcast
7:51 AM 73.9 °F 71.1 °F 91% 29.89 in 5.0 mi East 6.9 mph - 0.01 in   Overcast
8:21 AM 73.9 °F 72.0 °F 93% 29.91 in 1.0 mi ESE 9.2 mph - N/A Rain Rain
8:38 AM 68.0 °F 66.0 °F 93% 29.92 in 1.0 mi NW 10.4 mph 17.3 mph 0.29 in Rain Heavy Rain
8:48 AM 69.8 °F 66.2 °F 88% 29.93 in 0.5 mi NW 11.5 mph - 0.47 in Fog , Rain Heavy Rain
8:51 AM 69.1 °F 66.0 °F 90% 29.93 in 0.5 mi NW 8.1 mph - 0.56 in Fog , Rain Heavy Rain
9:04 AM 66.9 °F 64.9 °F 93% 29.93 in 1.8 mi North 8.1 mph - 0.23 in Rain Light Rain
9:07 AM 66.9 °F 64.0 °F 90% 29.93 in 3.0 mi NNW 9.2 mph - 0.24 in Rain Light Rain
9:10 AM 66.0 °F 64.0 °F 93% 29.93 in 6.0 mi North 11.5 mph - 0.24 in Rain Light Rain
9:13 AM 66.0 °F 64.0 °F 93% 29.93 in 9.0 mi North 10.4 mph - 0.24 in Rain Light Rain
9:51 AM 66.0 °F 63.0 °F 90% 29.95 in 10.0 mi North 9.2 mph - 0.24 in   Overcast
10:51 AM 70.0 °F 66.9 °F 90% 29.94 in 4.0 mi NNE 10.4 mph - 0.01 in Rain Light Rain
11:51 AM 71.1 °F 68.0 °F 90% 29.94 in 3.0 mi NNE 9.2 mph - 0.01 in Rain Rain
11:58 AM 71.1 °F 68.0 °F 90% 29.93 in 2.0 mi NNE 9.2 mph - 0.01 in Rain Light Rain
12:08 PM 72.0 °F 69.1 °F 91% 29.93 in 9.0 mi NNE 8.1 mph - 0.01 in   Overcast
12:51 PM 73.0 °F 70.0 °F 90% 29.91 in 8.0 mi NE 10.4 mph - 0.02 in   Overcast
1:51 PM 73.9 °F 70.0 °F 87% 29.88 in 10.0 mi NNE 11.5 mph - N/A   Overcast
2:51 PM 75.0 °F 70.0 °F 84% 29.86 in 4.0 mi NE 10.4 mph - N/A   Overcast
3:13 PM 73.9 °F 70.0 °F 87% 29.85 in 2.5 mi NNE 8.1 mph - 0.00 in Rain Light Rain
3:20 PM 73.9 °F 70.0 °F 87% 29.85 in 1.2 mi NNE 8.1 mph - 0.00 in Rain Heavy Rain
3:30 PM 73.9 °F 71.1 °F 91% 29.85 in 2.0 mi NE 9.2 mph - 0.06 in Rain Light Rain
3:43 PM 75.0 °F 71.1 °F 87% 29.85 in 7.0 mi NE 9.2 mph - 0.06 in   Overcast
3:51 PM 75.0 °F 72.0 °F 90% 29.84 in 5.0 mi NE 10.4 mph - 0.07 in   Overcast
4:51 PM 75.0 °F 71.1 °F 87% 29.84 in 10.0 mi NE 9.2 mph - N/A   Overcast
5:51 PM 75.0 °F 71.1 °F 87% 29.84 in 8.0 mi NE 9.2 mph - N/A   Overcast
6:51 PM 73.9 °F 71.1 °F 91% 29.85 in 5.0 mi NE 5.8 mph - N/A   Overcast
7:51 PM 73.9 °F 71.1 °F 91% 29.86 in 3.0 mi NE 5.8 mph - N/A   Overcast
8:51 PM 73.0 °F 71.1 °F 93% 29.87 in 2.5 mi NE 6.9 mph - N/A   Overcast
9:00 PM 73.0 °F 71.1 °F 93% 29.88 in 3.0 mi NE 6.9 mph - N/A   Overcast
9:28 PM 73.0 °F 71.1 °F 93% 29.88 in 4.0 mi ENE 5.8 mph - N/A   Overcast
9:46 PM 73.4 °F 71.6 °F 94% 29.88 in 3.0 mi NE 5.8 mph - N/A   Overcast
9:51 PM 73.0 °F 71.1 °F 93% 29.88 in 2.5 mi NE 5.8 mph - N/A   Overcast
10:44 PM 73.0 °F 71.1 °F 93% 29.89 in 1.2 mi NNE 5.8 mph - N/A   Overcast
10:51 PM 73.0 °F 71.1 °F 93% 29.89 in 0.8 mi NNE 5.8 mph - N/A   Mist
11:18 PM 73.0 °F 71.1 °F 93% 29.89 in 1.8 mi NE 5.8 mph - 0.00 in   Overcast
11:29 PM 73.9 °F 71.1 °F 91% 29.89 in 2.0 mi NNE 5.8 mph - 0.00 in   Overcast
11:51 PM 73.9 °F 71.1 °F 91% 29.88 in 2.5 mi North 5.8 mph - 0.00 in   Overcast